TimeEDT,TemperatureF,Dew PointF,Humidity,Sea Level PressureIn,VisibilityMPH,Wind Direction,Wind SpeedMPH,Gust SpeedMPH,PrecipitationIn,Events,Conditions,WindDirDegrees,DateUTC
12:53 AM,53.1,48.0,83,30.01,9.0,Calm,Calm,-,N/A,,Scattered Clouds,0,2013-05-06 04:53:00
1:53 AM,52.0,46.9,83,30.01,10.0,NNE,3.5,-,N/A,,Overcast,30,2013-05-06 05:53:00
2:53 AM,54.0,43.0,66,29.99,10.0,NNE,3.5,-,N/A,,Overcast,20,2013-05-06 06:53:00
3:53 AM,53.1,39.9,61,29.99,10.0,NE,3.5,-,N/A,,Scattered Clouds,50,2013-05-06 07:53:00
4:53 AM,51.1,37.9,61,29.98,10.0,NNE,3.5,-,N/A,,Partly Cloudy,30,2013-05-06 08:53:00
5:53 AM,51.1,37.9,61,29.98,10.0,NE,4.6,-,N/A,,Scattered Clouds,40,2013-05-06 09:53:00
6:53 AM,53.1,39.0,59,30.00,10.0,ENE,3.5,-,N/A,,Overcast,70,2013-05-06 10:53:00
7:53 AM,54.0,42.1,64,30.02,10.0,East,4.6,-,N/A,,Partly Cloudy,80,2013-05-06 11:53:00
8:53 AM,57.0,41.0,55,30.03,10.0,ENE,5.8,-,N/A,,Scattered Clouds,70,2013-05-06 12:53:00
9:53 AM,60.1,43.0,53,30.04,10.0,East,6.9,-,N/A,,Clear,100,2013-05-06 13:53:00
10:53 AM,64.9,45.0,48,30.03,10.0,East,3.5,-,N/A,,Clear,80,2013-05-06 14:53:00
11:53 AM,69.1,44.1,40,30.03,10.0,Variable,4.6,-,N/A,,Clear,0,2013-05-06 15:53:00
12:53 PM,70.0,39.9,33,30.02,10.0,ENE,5.8,-,N/A,,Clear,70,2013-05-06 16:53:00
1:53 PM,68.0,44.1,42,30.00,10.0,NNW,4.6,-,N/A,,Clear,340,2013-05-06 17:53:00
2:53 PM,68.0,42.1,39,30.00,10.0,Variable,5.8,-,N/A,,Clear,0,2013-05-06 18:53:00
3:53 PM,69.1,39.0,33,29.99,10.0,Variable,6.9,-,N/A,,Clear,0,2013-05-06 19:53:00
4:53 PM,64.9,42.1,43,29.98,10.0,North,6.9,-,N/A,,Clear,350,2013-05-06 20:53:00
5:53 PM,61.0,39.9,46,29.97,10.0,Variable,6.9,-,N/A,,Clear,0,2013-05-06 21:53:00
6:53 PM,61.0,39.0,44,29.97,10.0,Variable,5.8,-,N/A,,Clear,0,2013-05-06 22:53:00
7:53 PM,59.0,39.0,48,29.98,10.0,North,6.9,-,N/A,,Clear,350,2013-05-06 23:53:00
8:53 PM,55.0,39.9,57,29.98,10.0,Variable,4.6,-,N/A,,Clear,0,2013-05-07 00:53:00
9:53 PM,55.9,39.0,53,29.99,10.0,Calm,Calm,-,N/A,,Clear,0,2013-05-07 01:53:00
10:53 PM,52.0,39.9,63,30.00,10.0,Calm,Calm,-,N/A,,Clear,0,2013-05-07 02:53:00
11:53 PM,50.0,41.0,71,29.99,9.0,Calm,Calm,-,N/A,,Clear,0,2013-05-07 03:53:00